www.pogodaiklimat.ru

Погода и климат >> Архив погоды >> ОАЭ >> Рай-эль-Хайма аэропорт


ПОГОДА в Рай-эль-Хайма аэропорту

  • Прогноз погоды в Рай-эль-Хайма аэропорту
  • Монитор погоды в Рай-эль-Хайма аэропорту

АРХИВ ПОГОДЫ в Рай-эль-Хайма аэропорту

Время (UTC), дата Ветер
(напр.,м/с)
 
Видим.   Явления Облачность Т
(С)
Тd
(С)
f
(%)
Тe
(С)
Тes
(С)
Комфортность P
(гПа)
Po
(гПа)
Тmin
(С)
Tmax
(С)
R
(мм)
R24
(мм)
S
(см)
03 12.09 ЮВ 2 10 км ясно +31.0 +25.1 71 +45 +46 опасность
перегрева
1004.2 1000.7
06 12.09 Ю 4 10 км ясно +39.2 +20.0 33 +45 +54 опасность
перегрева
1005.0 1001.6 +29.0
09 12.09 СЗ 6 10 км ясно +39.7 +25.2 44 +53 +61 опасность
перегрева
1003.1 999.7
12 12.09 СЗ 5 10 км ясно +38.4 +24.6 46 +51 +54 опасность
перегрева
1002.0 998.6
15 12.09 СЗ 3 10 км ясно +34.9 +22.3 48 +44 +44 опасность
перегрева
1002.5 999.1
18 12.09 СЗ 1 10 км ясно +31.6 +24.3 65 +44 +44 опасность
перегрева
1003.7 1000.2 +42.9
21 12.09 З 1 10 км ясно +29.5 +23.8 71 +40 +40 очень
душно
1003.4 999.9
00 13.09 З 2 5000 м мгла ясно +28.5 +25.1 82 +41 +41 опасность
перегрева
1002.8 999.3
03 13.09 ЮЗ 2 600 м туман ?/? +28.9 +28.6 98 +49 +49 опасность
перегрева
1004.8 1001.3
06 13.09 ЮЗ 5 10 км ясно +37.2 +22.0 42 +46 +53 опасность
перегрева
1006.3 1002.9 +28.2
09 13.09 ЮЗ 3 10 км ясно +41.1 +20.8 31 +47 +62 опасность
перегрева
1004.1 1000.7
12 13.09 СЗ 5 6000 м пыль ясно +36.8 +27.5 59 +56 +59 опасность
перегрева
1002.7 999.3
15 13.09 СЗ 3 4000 м пыль ясно +33.5 +28.2 74 +55 +55 опасность
перегрева
1003.5 1000.0
18 13.09 З 1 3500 м пыль ясно +31.2 +27.6 81 +50 +50 опасность
перегрева
1004.8 1001.3 +41.6
21 13.09 СЗ 1 2500 м мгла ясно +29.5 +25.9 81 +44 +44 опасность
перегрева
1004.1 1000.6
00 14.09 Ю 1 1500 м дымка ясно +28.5 +26.3 88 +43 +43 опасность
перегрева
1003.6 1000.1
03 14.09 ЮЗ 2 600 м туман н/о +27.5 +27.0 97 +43 +43 опасность
перегрева
1005.4 1001.9
06 14.09 Ю 4 8000 м пыль ясно +35.4 +25.8 58 +51 +60 опасность
перегрева
1006.6 1003.1 +27.1
09 14.09 ЮЗ 2 10 км ясно +41.0 +19.5 29 +46 +63 опасность
перегрева
1004.6 1001.2
12 14.09 С 6 10 км ясно +37.8 +22.7 42 +47 +49 опасность
перегрева
1003.5 1000.1
15 14.09 СЗ 3 10 км ясно +33.7 +26.1 65 +50 +50 опасность
перегрева
1004.1 1000.6
18 14.09 З 1 10 км ясно +31.2 +27.3 80 +50 +50 опасность
перегрева
1005.2 1001.7 +41.5
21 14.09 СЗ 1 6000 м мгла ясно +29.0 +26.2 85 +44 +44 опасность
перегрева
1004.7 1001.2
00 15.09 СВ 2 4000 м мгла ясно +29.0 +26.8 88 +45 +45 опасность
перегрева
1004.7 1001.2
03 15.09 В 3 8000 м пыль ясно +30.4 +26.9 82 +48 +48 опасность
перегрева
1006.2 1002.7
06 15.09 С 2 10 км ясно +36.4 +26.4 57 +53 +67 опасность
перегрева
1007.5 1004.1 +28.0
09 15.09 С 5 10 км ясно +39.0 +25.9 48 +54 +63 опасность
перегрева
1005.7 1002.3
12 15.09 С 5 10 км ясно +37.9 +24.6 47 +50 +53 опасность
перегрева
1004.3 1000.9
15 15.09 СЗ 3 10 км ясно +30.3 +22.3 62 +39 +39 очень
душно
1004.9 1001.4
18 15.09 С 1 10 км ясно +31.9 +23.5 61 +43 +43 опасность
перегрева
1006.7 1003.2 +40.2
21 15.09 нст 1 10 км ясно +30.3 +24.0 69 +42 +42 опасность
перегрева
1005.6 1002.1
00 16.09 Ю 4 10 км ясно +30.3 +24.3 70 +42 +42 опасность
перегрева
1006.0 1002.5
03 16.09 ЮЗ 1 10 км ясно +28.7 +21.0 63 +36 +37 очень
душно
1006.9 1003.4
06 16.09 ЮЗ 3 10 км 3/0
[Ci fib]
+37.0 +19.0 35 +42 +52 опасность
перегрева
1008.1 1004.7 +28.1
09 16.09 СЗ 5 10 км 3/0
[Ci fib]
+38.6 +21.1 36 +45 +53 опасность
перегрева
1006.4 1003.0
12 16.09 С 5 8000 м 3/0
[Ci fib]
+36.3 +25.4 54 +51 +54 опасность
перегрева
1004.9 1001.5
15 16.09 СЗ 3 10 км 3/0
[Ci fib]
+33.5 +26.8 68 +51 +51 опасность
перегрева
1004.6 1001.1
18 16.09 СЗ 1 8000 м пыль 3/0
[Ci fib]
+31.8 +26.8 75 +49 +49 опасность
перегрева
1006.1 1002.6
21 16.09 В 1 7000 м пыль 3/0
[Ci fib]
+30.9 +26.8 79 +48 +48 опасность
перегрева
1005.7 1002.2
00 17.09 ЮЗ 2 7000 м мгла ясно +28.8 +25.8 84 +43 +43 опасность
перегрева
1005.0 1001.5
03 17.09 Ю 1 5000 м мгла 4/0
[Ci fib]
+28.8 +26.4 87 +44 +45 опасность
перегрева
1006.7 1003.2
06 17.09 ЮЗ 2 10 км 4/0
[Ci fib]
+37.4 +21.3 39 +44 +56 опасность
перегрева
1006.9 1003.5 +28.1
09 17.09 СЗ 6 10 км 3/0
[Ci fib]
+38.8 +34 +40 очень
жарко
1004.9 1001.5
12 17.09 СЗ 6 10 км 4/0
[Ci fib]
+37.3 +22.2 42 +46 +48 опасность
перегрева
1003.6 1000.2
15 17.09 СЗ 3 10 км 4/0
[Ci fib]
+33.7 +26.2 65 +50 +50 опасность
перегрева
1003.9 1000.4
18 17.09 З 1 10 км 3/0
[Ci fib]
+31.8 +27.3 77 +50 +50 опасность
перегрева
1004.8 1001.3 +42.7
21 17.09 З 1 7000 м пыль 3/0
[Ci fib]
+29.9 +26.6 83 +46 +46 опасность
перегрева
1004.9 1001.4
00 18.09 Ю 1 7000 м пыль 3/0
[Ci fib]
+28.3 +25.3 84 +41 +41 опасность
перегрева
1004.4 1000.9
03 18.09 штиль 0 5000 м мгла 3/0
[Ci fib]
+28.1 +25.7 87 +42 +43 опасность
перегрева
1006.0 1002.5
06 18.09 В 1 10 км 1/0
[Ci fib]
+39.8 +22.0 36 +47 +62 опасность
перегрева
1006.5 1003.1 +27.3
09 18.09 С 6 10 км ясно +40.5 +23.1 37 +50 +57 опасность
перегрева
1005.2 1001.8
12 18.09 СЗ 4 10 км ясно +39.0 +22.6 39 +48 +51 опасность
перегрева
1004.2 1000.8
15 18.09 СЗ 3 10 км ясно +33.9 +24.2 57 +46 +46 опасность
перегрева
1005.4 1001.9
18 18.09 З 2 7000 м пыль ясно +29.8 +24.5 73 +42 +42 опасность
перегрева
1006.4 1002.9 +29.8
21 18.09 Ю 1 5000 м мгла ясно +27.9 +24.5 82 +39 +39 очень
душно
1006.0 1002.5
00 19.09 Ю 1 3000 м мгла ясно +26.0 +23.4 86 +35 +35 очень
душно
1005.9 1002.3

 

Местоположение метеостанции Рай-эль-Хайма аэропорт (ОАЭ): широта 25.62 долгота 55.93 высота над уровнем моря 31 м.

В архиве по умолчанию представлена погода в Рай-эль-Хайма аэропорту за последнюю неделю. Архивные данные за месяц целиком и за предыдущие месяцы, начиная с января 2011 года, Вы можете получить, выбрав интересующий диапазон дат из раскрывающегося списка и нажав кнопку "Ввод!".


*Определитесь, кто Вы:
робот инопланетянин человек

Внимание! Время в таблицах - всемирное. Для получения местного времени необходимо прибавить поправку, которая равна 4 ч.

Смотрите также архив погоды в соседних городах и на ближайших метеорологических станциях:

Погода в Дибе (Оман) (32 км)
Погода в Шардже (ОАЭ) (52 км)
Погода в Эль-Хасаб аэропорту (Оман) (68 км)
Погода в Фуджейре (ОАЭ) (70 км)
Погода в Эль-Хасабе (Оман) (73 км)
Погода в Дубае (ОАЭ) (73 км)
Погода в Аль-Мактум аэропорту (ОАЭ) (111 км)
Погода на Острове Абу-Муса (Иран) (113 км)
Погода на Острове Сирри (Иран) (142 км)
Погода в Сухаре (Оман) (146 км)

Пояснения к столбцам:

Ветер - указаны скорость ветра в м/с - средняя за 10 мин, порывы в срок и между сроками (в фигурных скобках) и направление, откуда дует ветер: С - северный, СВ - северо-восточный, В - восточный, ЮВ - юго-восточный, Ю - южный, ЮЗ - юго-западный, З - западный, СЗ - северо-западный.
Видимость - горизонтальная дальность видимости в метрах или километрах. При видимости от 1 до 10 км при отсутствии осадков обычно наблюдается дымка, при ухудшении видимости до 1 км и менее - туман. В сухую погоду видимость может ухудшаться дымом, пылью или мглою.
Явления - указаны атмосферные явления, наблюдавшиеся в срок или в последний час перед сроком; фигурными скобками обозначены явления, наблюдавшиеся между сроками (за 1-3 часа до срока); квадратными скобками обозначены град или гололедные отложения с указанием их диаметра в мм.
Облачность - указаны через наклонную черту общая и нижняя облачность в баллах и высота нижней границы облаков в метрах; квадратными скобками обозначены формы облаков: Ci - перистые, Cs - перисто-слоистые, Cc - перисто-кучевые, Ac - высококучевые, As - высокослоистые, Sc - слоисто-кучевые, Ns - слоисто-дождевые, Cu - кучевые, Cb - кучево-дождевые. Подробнее классификацию облаков см. в Атласе облаков (PDF).
T - Температура воздуха - температура, измеренная на высоте 2 м над землей.
Td - Температура точки росы - температура, при понижении до которой содержащийся в воздухе водяной пар достигнет насыщения.
f - Относительная влажность воздуха - влажноcть воздуха, измеренная на высоте 2 м над землей.
Te - Эффективная температура - температура, которую ощущает одетый по сезону человек в тени. Характеристика душности погоды. При расчете учитывается влияние влажности воздуха и скорости ветра на теплоощущения человека.
Tes - Эффективная температура на солнце - температура, которую ощущает человек, с поправкой на солнечный нагрев. Характеристика знойности погоды. Зависит от высоты солнца над горизонтом, облачности и скорости ветра. Ночью, в пасмурную погоду, а также при ветре 12 м/с и более поправка равна нулю.
P - Атмосферное давление - приведенное к уровню моря атмосферное давление.
Po - Атмосферное давление - измеренное на уровне метеостанции атмосферное давление.
Tmin - Минимальная температура - минимум температуры воздуха на высоте 2 м над землей.
Tmax - Максимальная температура - максимум температуры воздуха на высоте 2 м над землей.
R - Количество осадков - Количество выпавших осадков за период времени, мм. При наведении курсора мыши на число - период времени, за который выпало указанное количество осадков.
R24 - Количество осадков - Количество выпавших осадков за 24 часа, мм.
S - Снежный покров - Высота снежного покрова, см. При наведении курсора мыши на число - состояние снежного покрова и степень покрытия местности в баллах.